Date String (YYYY-MM-DD hh:mm:ss) UTC,Instrument flags,Ambient pressure (hPa),Sample flow (lpm),Bypass flow (lpm),Sample temperature (°C),Ambient temperature (°C),ASC tube jacket temperature (°C),LED temperature (°C),Box temperature (°C),Sample RH (%),Span deviation,Mass concentration (μg/m³),Mass concentration (μg/m³),Mass concentration (μg/m³)
DateTimeUTC,F1_M11,P_M11,Q1_M11,Q2_M11,T1_M11,T2_M11,T3_M11,T4_M11,T5_M11,U1_M11,ZSPAN_M11,X0_M11,X2_M11,X1_M11
2022-11-01 12:00:00,,0824.2,5.01,0.00,26.1,24.3,00.0,35.0,27.8,10.2,0000.0,0004.01,0002.62,0002.16
2022-11-01 12:01:00,,0824.2,5.01,0.00,26.1,24.3,00.0,35.0,27.8,10.2,0000.0,0004.60,0002.64,0002.18
2022-11-01 12:02:00,,0824.2,5.00,0.00,26.1,24.3,00.0,35.0,27.8,10.2,0000.0,0004.89,0002.67,0002.20
2022-11-01 12:03:00,,0824.2,5.00,0.00,26.1,24.3,00.0,35.0,27.8,10.2,0000.0,0004.80,0002.68,0002.23
2022-11-01 12:04:00,,0824.3,4.99,0.00,26.0,24.3,00.0,35.0,27.7,10.2,0000.0,0004.60,0002.66,0002.24
2022-11-01 12:05:00,,0824.3,5.00,0.00,26.0,24.3,00.0,35.0,27.7,10.3,0000.0,0004.60,0002.66,0002.24
2022-11-01 12:06:00,,0824.2,5.01,0.00,26.0,24.2,00.0,35.0,27.7,10.3,0000.0,0004.89,0002.63,0002.24
2022-11-01 12:07:00,,0824.2,5.01,0.00,26.0,24.2,00.0,35.0,27.8,10.4,0000.0,0005.06,0002.63,0002.24
2022-11-01 12:08:00,,0824.2,4.99,0.00,26.0,24.2,00.0,35.0,27.8,10.4,0000.0,0005.02,0002.60,0002.23
2022-11-01 12:09:00,,0824.2,4.99,0.00,26.0,24.2,00.0,34.9,27.7,10.3,0000.0,0005.51,0002.67,0002.23
2022-11-01 12:10:00,,0824.1,4.99,0.00,26.0,24.2,00.0,34.9,27.7,10.3,0000.0,0005.77,0002.64,0002.22
2022-11-01 12:11:00,,0824.2,5.00,0.00,26.0,24.2,00.0,34.9,27.7,10.3,0000.0,0005.70,0002.63,0002.22
2022-11-01 12:12:00,,0824.2,5.01,0.00,26.0,24.2,00.0,34.9,27.7,10.3,0000.0,0005.25,0002.67,0002.22
2022-11-01 12:13:00,,0824.2,5.01,0.00,26.0,24.2,00.0,34.9,27.7,10.3,0000.0,0004.93,0002.67,0002.21
2022-11-01 12:14:00,,0824.2,5.00,0.00,26.0,24.2,00.0,34.9,27.7,10.4,0000.0,0004.89,0002.66,0002.19
2022-11-01 12:15:00,,0824.2,4.99,0.00,25.9,24.2,00.0,34.9,27.6,10.4,0000.0,0005.02,0002.66,0002.18
2022-11-01 12:16:00,,0824.2,5.00,0.00,25.9,24.2,00.0,34.9,27.6,10.5,0000.0,0005.01,0002.66,0002.18
2022-11-01 12:17:00,,0824.1,5.01,0.00,25.9,24.2,00.0,34.9,27.7,10.5,0000.0,0004.65,0002.66,0002.17
2022-11-01 12:18:00,,0824.1,5.01,0.00,25.9,24.2,00.0,34.9,27.7,10.5,0000.0,0004.44,0002.67,0002.18
2022-11-01 12:19:00,,0824.1,5.00,0.00,25.9,24.2,00.0,34.9,27.6,10.5,0000.0,0004.40,0002.67,0002.18
2022-11-01 12:20:00,,0824.1,4.99,0.00,25.9,24.1,00.0,34.9,27.6,10.5,0000.0,0004.02,0002.64,0002.19
2022-11-01 12:21:00,,0824.1,4.99,0.00,25.9,24.1,00.0,34.8,27.6,10.5,0000.0,0003.68,0002.64,0002.19
2022-11-01 12:22:00,,0824.1,5.01,0.00,25.9,24.1,00.0,34.8,27.6,10.5,0000.0,0003.62,0002.61,0002.18
2022-11-01 12:23:00,,0824.1,5.01,0.00,25.9,24.1,00.0,34.8,27.6,10.5,0000.0,0004.02,0002.53,0002.16
2022-11-01 12:24:00,,0824.1,5.00,0.00,25.9,24.1,00.0,34.8,27.6,10.5,0000.0,0003.99,0002.46,0002.14
2022-11-01 12:25:00,,0824.1,5.00,0.00,25.9,24.1,00.0,34.8,27.6,10.4,0000.0,0003.90,0002.44,0002.13
2022-11-01 12:26:00,,0824.1,4.99,0.00,25.8,24.1,00.0,34.8,27.6,10.4,0000.0,0003.81,0002.44,0002.12
2022-11-01 12:27:00,,0824.1,4.99,0.00,25.8,24.1,00.0,34.8,27.6,10.5,0000.0,0003.82,0002.44,0002.10
2022-11-01 12:28:00,,0824.1,5.00,0.00,25.8,24.1,00.0,34.8,27.7,10.5,0000.0,0003.95,0002.45,0002.09
2022-11-01 12:29:00,,0824.1,5.00,0.00,25.8,24.1,00.0,34.8,27.6,10.6,0000.0,0003.95,0002.43,0002.06
2022-11-01 12:30:00,,0824.1,5.00,0.00,25.8,24.1,00.0,34.8,27.6,10.6,0000.0,0003.87,0002.39,0002.04
2022-11-01 12:31:00,,0824.1,5.00,0.00,25.8,24.1,00.0,34.8,27.6,10.6,0000.0,0003.75,0002.33,0002.02
2022-11-01 12:32:00,,0824.1,5.00,0.00,25.8,24.1,00.0,34.8,27.5,10.5,0000.0,0003.82,0002.32,0001.99
2022-11-01 12:33:00,,0824.1,5.00,0.00,25.8,24.1,00.0,34.7,27.6,10.6,0000.0,0003.91,0002.34,0001.97
2022-11-01 12:34:00,,0824.1,5.00,0.00,25.8,24.1,00.0,34.7,27.6,10.5,0000.0,0003.74,0002.33,0001.94
2022-11-01 12:35:00,,0824.1,4.99,0.00,25.8,24.0,00.0,34.7,27.6,10.5,0000.0,0003.74,0002.31,0001.91
2022-11-01 12:36:00,,0824.1,5.00,0.00,25.8,24.0,00.0,34.7,27.5,10.6,0000.0,0003.67,0002.26,0001.89
2022-11-01 12:37:00,,0824.1,5.01,0.00,25.8,24.0,00.0,34.7,27.5,10.6,0000.0,0003.60,0002.21,0001.88
2022-11-01 12:38:00,,0824.1,5.00,0.00,25.8,24.0,00.0,34.7,27.5,10.6,0000.0,0003.68,0002.17,0001.88
2022-11-01 12:39:00,,0824.0,4.99,0.00,25.7,24.0,00.0,34.7,27.5,10.6,0000.0,0004.62,0002.15,0001.87
2022-11-01 12:40:00,,0824.1,4.99,0.00,25.7,24.0,00.0,34.7,27.4,10.6,0000.0,0004.57,0002.14,0001.87
2022-11-01 12:41:00,,0824.0,4.99,0.00,25.7,24.0,00.0,34.7,27.5,10.5,0000.0,0004.57,0002.14,0001.88
2022-11-01 12:42:00,,0824.1,5.01,0.00,25.7,23.9,00.0,34.7,27.4,10.5,0000.0,0004.76,0002.15,0001.87
2022-11-01 12:43:00,,0824.1,5.01,0.00,25.7,23.9,00.0,34.7,27.4,10.3,0000.0,0004.81,0002.18,0001.89
2022-11-01 12:44:00,,0824.0,5.00,0.00,25.7,23.9,00.0,34.6,27.4,10.3,0000.0,0004.75,0002.19,0001.92
2022-11-01 12:45:00,,0824.1,5.00,0.00,25.7,23.9,00.0,34.6,27.4,10.4,0000.0,0004.42,0002.17,0001.93
2022-11-01 12:46:00,,0824.0,4.99,0.00,25.7,23.9,00.0,34.6,27.4,10.3,0000.0,0004.21,0002.21,0001.95
2022-11-01 12:47:00,,0824.0,4.99,0.00,25.7,23.9,00.0,34.6,27.4,10.4,0000.0,0004.33,0002.26,0001.98
2022-11-01 12:48:00,,0824.0,5.01,0.00,25.6,23.9,00.0,34.6,27.3,10.5,0000.0,0004.42,0002.28,0001.99
2022-11-01 12:49:00,,0824.1,5.01,0.00,25.6,23.9,00.0,34.6,27.4,10.5,0000.0,0004.27,0002.29,0001.98
2022-11-01 12:50:00,,0824.1,5.00,0.00,25.7,23.9,00.0,34.6,27.5,10.6,0000.0,0003.26,0002.29,0001.98
2022-11-01 12:51:00,,0824.1,4.99,0.00,25.6,23.9,00.0,34.6,27.4,10.5,0000.0,0003.30,0002.32,0001.99
2022-11-01 12:52:00,,0824.1,4.99,0.00,25.6,23.9,00.0,34.6,27.5,10.4,0000.0,0003.47,0002.36,0002.01
2022-11-01 12:53:00,,0824.0,5.00,0.00,25.6,24.0,00.0,34.6,27.5,10.2,0000.0,0003.76,0002.43,0002.08
2022-11-01 12:54:00,,0824.0,5.02,0.00,25.6,24.0,00.0,34.6,27.4,10.1,0000.0,0003.77,0002.47,0002.14
2022-11-01 12:55:00,,0824.0,5.00,0.00,25.6,24.0,00.0,34.6,27.4,10.1,0000.0,0003.84,0002.50,0002.20
2022-11-01 12:56:00,,0824.0,4.99,0.00,25.6,24.0,00.0,34.6,27.4,10.1,0000.0,0004.06,0002.61,0002.27
2022-11-01 12:57:00,,0824.0,4.99,0.00,25.6,24.0,00.0,34.6,27.4,10.3,0000.0,0004.13,0002.66,0002.31
2022-11-01 12:58:00,,0824.0,5.00,0.00,25.6,23.9,00.0,34.6,27.4,10.4,0000.0,0004.78,0002.66,0002.31
2022-11-01 12:59:00,,0824.0,5.00,0.00,25.6,23.9,00.0,34.6,27.4,10.5,0000.0,0005.23,0002.66,0002.31
